Regional Weather Roundup
Issued by NWS

Home | Current Version | Previous Version | Graphics & Text | Print | Product List | Glossary On
Versions: 1 2 3 4 5 6 7 8 9 10 11 12 13 14 15 16 17 18 19 20 21 22 23 24 25 26 27 28 29 30 31 32 33 34 35 36 37 38 39 40 41 42 43 44 45 46 47 48 49 50
075
ASUS45 KBOI 202110
RWRID

IDAHO REGIONAL WEATHER ROUNDUP
NATIONAL WEATHER SERVICE BOISE ID
200 PM MST TUE FEB 20 2018

NOTE: "FAIR" INDICATES FEW OR NO CLOUDS BELOW 12000 FEET
WITH NO SIGNIFICANT WEATHER AND/OR OBSTRUCTIONS TO VISIBILITY

IDZ012-014-202200-
SOUTHWEST IDAHO


CITY           SKY/WX    TMP DP  RH WIND       PRES   REMARKS
BOISE          FAIR      27   1  32 NW8       30.16F WCI  19
CALDWELL       FAIR      27   3  35 E5        30.20F WCI  22
MOUNTAIN HOME  FAIR      24   1  36 NW14      30.16F WCI  12
$$

IDZ016-017-202200-
SOUTHCENTRAL IDAHO


CITY           SKY/WX    TMP DP  RH WIND       PRES   REMARKS
BURLEY         FAIR      17   3  54 W12G20    30.09S WCI   4
JEROME         FAIR      23   0  36 SW17      30.10S WCI   9
TWIN FALLS     FAIR      19   5  54 SW8       30.09F WCI   9
$$

IDZ019>023-202200-
SOUTHEAST IDAHO


CITY           SKY/WX    TMP DP  RH WIND       PRES   REMARKS
IDAHO FALLS    CLOUDY    14   4  64 SW16G29   30.05R HAZE    WCI  -2
POCATELLO      PTSUNNY   16   6  65 SW17      30.08S WCI   0
REXBURG        CLOUDY    13   4  67 SW16G29   30.02S WCI  -3
$$

IDZ006-010-011-018-031-032-202200-
CENTRAL IDAHO MOUNTAINS


CITY           SKY/WX    TMP DP  RH WIND       PRES   REMARKS
MCCALL         PTSUNNY    8  -2  63 CALM      29.98S
HAILEY         LGT SNOW  14   7  73 SE7G17    29.98S WCI   4
STANLEY          N/A     10  -5  50 N5        29.87F WCI   2
SALMON         FAIR      22   0  38 E8        30.02F WCI  12
CHALLIS        FAIR      21  -2  36 CALM      29.91F
$$

IDZ002-004-006-007-026-202200-
NORTHERN IDAHO


CITY           SKY/WX    TMP DP  RH WIND       PRES   REMARKS
LEWISTON       FAIR      28   8  43 E13       30.22F WCI  17
LOWELL           N/A     30   6  36 S3        30.23F
COEUR D`ALENE  CLOUDY    24   8  50 S5        30.17F WCI  18
MULLAN PASS    LGT SNOW   3  -1  83 CALM      29.85F FOG
$$




USA.gov is the U.S. government's official web portal to all federal, state and local government web resources and services.